ANZ402 NZAA-NZWN

Flight info

Callsign ANZ402
Flight time 0h 48m
Altitude 32000
Route IGBAT Y506 TPAPA
Aircraft A320/M-SDE3FGHIRWY/LB1

Departure

Time 2026-05-03 20:15
Airport Auckland International Airport (NZAA)

Arrival

Time 2026-05-03 21:03
Airport Wellington International Airport (NZWN)
Time Latitude Longitude Altitude Speed Heading
2026-05-03 20:15 -37.00665 174.80637 412 ft 173 kts 73°
2026-05-03 20:15 -37.00292 174.82100 1015 ft 179 kts 72°
2026-05-03 20:15 -36.99875 174.83582 1678 ft 182 kts 70°
2026-05-03 20:15 -36.99422 174.85048 2366 ft 183 kts 67°
2026-05-03 20:16 -36.98923 174.86525 3058 ft 184 kts 65°
2026-05-03 20:16 -36.98431 174.88018 3672 ft 190 kts 68°
2026-05-03 20:16 -36.98007 174.89683 4049 ft 209 kts 79°
2026-05-03 20:16 -36.98258 174.91481 4728 ft 218 kts 122°
2026-05-03 20:17 -36.99440 174.92657 5518 ft 223 kts 155°
2026-05-03 20:17 -36.99841 174.92865 5746 ft 223 kts 156°
2026-05-03 20:17 -37.01309 174.93522 6549 ft 225 kts 159°
2026-05-03 20:17 -37.02867 174.93789 7297 ft 233 kts 186°
2026-05-03 20:18 -37.04369 174.92990 7879 ft 242 kts 219°
2026-05-03 20:18 -37.05317 174.91243 8544 ft 249 kts 249°
2026-05-03 20:18 -37.05911 174.89138 8992 ft 267 kts 250°
2026-05-03 20:18 -37.06532 174.86869 9316 ft 289 kts 250°
2026-05-03 20:19 -37.07193 174.84439 9941 ft 299 kts 250°
2026-05-03 20:19 -37.07878 174.81924 10427 ft 315 kts 250°
2026-05-03 20:19 -37.08617 174.79229 10653 ft 337 kts 250°
2026-05-03 20:19 -37.09396 174.76401 11181 ft 346 kts 250°
2026-05-03 20:20 -37.10470 174.73706 11819 ft 349 kts 229°
2026-05-03 20:20 -37.12345 174.71855 12450 ft 349 kts 202°
2026-05-03 20:20 -37.14692 174.71154 13113 ft 348 kts 185°
2026-05-03 20:20 -37.17111 174.70828 13796 ft 351 kts 184°
2026-05-03 20:21 -37.19555 174.70527 14432 ft 355 kts 184°
2026-05-03 20:21 -37.22030 174.70195 15007 ft 359 kts 185°
2026-05-03 20:21 -37.24523 174.69815 15572 ft 362 kts 186°
2026-05-03 20:21 -37.27037 174.69390 16155 ft 366 kts 186°
2026-05-03 20:22 -37.29573 174.68932 16723 ft 369 kts 187°
2026-05-03 20:22 -37.32122 174.68455 17291 ft 372 kts 187°
2026-05-03 20:22 -37.34700 174.67967 17854 ft 376 kts 187°
2026-05-03 20:22 -37.37265 174.67487 18404 ft 379 kts 187°
2026-05-03 20:23 -37.39884 174.67002 18955 ft 382 kts 187°
2026-05-03 20:23 -37.42528 174.66520 19467 ft 385 kts 187°
2026-05-03 20:23 -37.45205 174.66036 19961 ft 388 kts 187°
2026-05-03 20:23 -37.47902 174.65553 20469 ft 392 kts 187°
2026-05-03 20:24 -37.50608 174.65065 20975 ft 394 kts 187°
2026-05-03 20:24 -37.53304 174.64577 21463 ft 397 kts 187°
2026-05-03 20:24 -37.56048 174.64077 21938 ft 400 kts 187°
2026-05-03 20:24 -37.58786 174.63378 22387 ft 403 kts 192°
2026-05-03 20:25 -37.60634 174.62803 22702 ft 405 kts 192°
2026-05-03 20:25 -37.63377 174.61948 23178 ft 407 kts 192°
2026-05-03 20:25 -37.66107 174.61095 23627 ft 410 kts 192°
2026-05-03 20:25 -37.68893 174.60225 24093 ft 413 kts 192°
2026-05-03 20:26 -37.71693 174.59350 24477 ft 415 kts 192°
2026-05-03 20:26 -37.74504 174.58472 24872 ft 417 kts 192°
2026-05-03 20:26 -37.77337 174.57589 25267 ft 419 kts 193°
2026-05-03 20:26 -37.80178 174.56700 25657 ft 421 kts 193°
2026-05-03 20:27 -37.83030 174.55807 26040 ft 423 kts 193°
2026-05-03 20:27 -37.85897 174.54909 26437 ft 425 kts 193°
2026-05-03 20:27 -37.88768 174.54011 26825 ft 426 kts 193°
2026-05-03 20:27 -37.91666 174.53102 27205 ft 428 kts 193°
2026-05-03 20:28 -37.94563 174.52190 27578 ft 430 kts 193°
2026-05-03 20:28 -37.97438 174.51283 27934 ft 432 kts 193°
2026-05-03 20:28 -38.00362 174.50356 28295 ft 434 kts 193°
2026-05-03 20:28 -38.03305 174.49418 28659 ft 436 kts 193°
2026-05-03 20:29 -38.06264 174.48474 29017 ft 438 kts 193°
2026-05-03 20:29 -38.09227 174.47522 29391 ft 440 kts 193°
2026-05-03 20:29 -38.12203 174.46561 29759 ft 442 kts 193°
2026-05-03 20:29 -38.15147 174.45609 30117 ft 444 kts 193°
2026-05-03 20:30 -38.18153 174.44636 30468 ft 446 kts 193°
2026-05-03 20:30 -38.21171 174.43657 30790 ft 448 kts 193°
2026-05-03 20:30 -38.24203 174.42673 31078 ft 450 kts 193°
2026-05-03 20:30 -38.27242 174.41689 31467 ft 449 kts 193°
2026-05-03 20:31 -38.30267 174.40711 31895 ft 448 kts 193°
2026-05-03 20:31 -38.33285 174.39739 32332 ft 446 kts 193°
2026-05-03 20:31 -38.36292 174.38774 32549 ft 446 kts 193°
2026-05-03 20:32 -38.42291 174.37158 32591 ft 437 kts 181°
2026-05-03 20:32 -38.48464 174.37380 32601 ft 447 kts 177°
2026-05-03 20:33 -38.54701 174.37710 32602 ft 448 kts 176°
2026-05-03 20:33 -38.60932 174.38046 32597 ft 448 kts 176°
2026-05-03 20:34 -38.67147 174.38373 32603 ft 448 kts 176°
2026-05-03 20:34 -38.73385 174.38698 32606 ft 448 kts 176°
2026-05-03 20:35 -38.79625 174.39015 32605 ft 448 kts 176°
2026-05-03 20:35 -38.85821 174.39338 32609 ft 447 kts 176°
2026-05-03 20:35 -38.88896 174.39498 32602 ft 436 kts 176°
2026-05-03 20:36 -38.91917 174.39654 32597 ft 432 kts 176°
2026-05-03 20:36 -38.97903 174.39965 32607 ft 430 kts 176°
2026-05-03 20:37 -39.03842 174.40281 32607 ft 429 kts 176°
2026-05-03 20:37 -39.09819 174.40597 32609 ft 429 kts 176°
2026-05-03 20:38 -39.15794 174.40916 32611 ft 429 kts 176°
2026-05-03 20:38 -39.21773 174.41223 32615 ft 429 kts 176°
2026-05-03 20:39 -39.27717 174.41536 32614 ft 429 kts 176°
2026-05-03 20:39 -39.33686 174.41857 32616 ft 429 kts 176°
2026-05-03 20:40 -39.39658 174.42167 32618 ft 429 kts 176°
2026-05-03 20:40 -39.45595 174.42479 32614 ft 429 kts 176°
2026-05-03 20:41 -39.51566 174.42803 32613 ft 429 kts 176°
2026-05-03 20:41 -39.57540 174.43126 32610 ft 429 kts 176°
2026-05-03 20:41 -39.60504 174.43284 32242 ft 425 kts 177°
2026-05-03 20:42 -39.63448 174.43441 31749 ft 422 kts 176°
2026-05-03 20:42 -39.66370 174.43595 31302 ft 418 kts 176°
2026-05-03 20:42 -39.69273 174.43751 30834 ft 415 kts 177°
2026-05-03 20:42 -39.72122 174.43905 30355 ft 412 kts 177°
2026-05-03 20:43 -39.74974 174.44061 29922 ft 408 kts 177°
2026-05-03 20:43 -39.77802 174.44215 29490 ft 404 kts 177°
2026-05-03 20:43 -39.80597 174.44358 29080 ft 399 kts 177°
2026-05-03 20:43 -39.83374 174.44499 28658 ft 396 kts 177°
2026-05-03 20:44 -39.86081 174.44642 28258 ft 392 kts 177°
2026-05-03 20:44 -39.88805 174.44788 27861 ft 389 kts 177°
2026-05-03 20:44 -39.91501 174.44936 27452 ft 387 kts 177°
2026-05-03 20:44 -39.94190 174.45086 27060 ft 384 kts 177°
2026-05-03 20:45 -39.96853 174.45234 26655 ft 381 kts 177°
2026-05-03 20:45 -39.99500 174.45376 26251 ft 379 kts 177°
2026-05-03 20:45 -40.02100 174.45515 25851 ft 377 kts 177°
2026-05-03 20:45 -40.04714 174.45659 25439 ft 375 kts 176°
2026-05-03 20:46 -40.07319 174.45805 25021 ft 373 kts 176°
2026-05-03 20:46 -40.09907 174.45946 24596 ft 372 kts 176°
2026-05-03 20:46 -40.12493 174.46087 24171 ft 371 kts 177°
2026-05-03 20:46 -40.15067 174.46227 23691 ft 369 kts 177°
2026-05-03 20:47 -40.17621 174.46360 23257 ft 366 kts 177°
2026-05-03 20:47 -40.20157 174.46491 22827 ft 363 kts 177°
2026-05-03 20:47 -40.22669 174.46624 22405 ft 360 kts 177°
2026-05-03 20:47 -40.25172 174.46759 21980 ft 358 kts 177°
2026-05-03 20:48 -40.27656 174.46895 21548 ft 356 kts 177°
2026-05-03 20:48 -40.30122 174.47029 21120 ft 353 kts 177°
2026-05-03 20:48 -40.32545 174.47163 20713 ft 352 kts 177°
2026-05-03 20:48 -40.34985 174.47298 20293 ft 350 kts 177°
2026-05-03 20:49 -40.37409 174.47434 19872 ft 348 kts 177°
2026-05-03 20:49 -40.39827 174.47572 19457 ft 347 kts 177°
2026-05-03 20:49 -40.42236 174.47703 19039 ft 345 kts 178°
2026-05-03 20:49 -40.44638 174.47831 18594 ft 344 kts 178°
2026-05-03 20:50 -40.47023 174.47958 18170 ft 341 kts 178°
2026-05-03 20:50 -40.49389 174.48087 17761 ft 339 kts 178°
2026-05-03 20:50 -40.51740 174.48219 17353 ft 336 kts 178°
2026-05-03 20:50 -40.54072 174.48351 16946 ft 334 kts 178°
2026-05-03 20:51 -40.56391 174.48479 16544 ft 332 kts 178°
2026-05-03 20:51 -40.58664 174.48601 16155 ft 330 kts 178°
2026-05-03 20:51 -40.60956 174.48722 15757 ft 329 kts 178°
2026-05-03 20:51 -40.63240 174.48843 15359 ft 327 kts 178°
2026-05-03 20:52 -40.65512 174.48966 14964 ft 326 kts 179°
2026-05-03 20:52 -40.67792 174.49094 14574 ft 335 kts 178°
2026-05-03 20:52 -40.70194 174.49229 14130 ft 349 kts 179°
2026-05-03 20:52 -40.72634 174.49363 13695 ft 349 kts 179°
2026-05-03 20:53 -40.75026 174.49497 13280 ft 346 kts 178°
2026-05-03 20:53 -40.77430 174.49635 12862 ft 343 kts 178°
2026-05-03 20:53 -40.79809 174.49771 12450 ft 340 kts 179°
2026-05-03 20:53 -40.82178 174.49902 12022 ft 337 kts 179°
2026-05-03 20:54 -40.84537 174.50031 11267 ft 343 kts 179°
2026-05-03 20:54 -40.89146 174.50284 10740 ft 323 kts 179°
2026-05-03 20:54 -40.91340 174.50408 10613 ft 311 kts 179°
2026-05-03 20:55 -40.93475 174.50529 10500 ft 300 kts 179°
2026-05-03 20:55 -40.95528 174.50644 10356 ft 289 kts 179°
2026-05-03 20:55 -40.97498 174.51051 9988 ft 290 kts 163°
2026-05-03 20:55 -40.99272 174.52461 9215 ft 309 kts 136°
2026-05-03 20:56 -41.00481 174.54785 9057 ft 303 kts 122°
2026-05-03 20:56 -41.01509 174.57195 8711 ft 301 kts 122°
2026-05-03 20:56 -41.02551 174.59611 8260 ft 303 kts 123°
2026-05-03 20:56 -41.03599 174.62036 7811 ft 305 kts 123°
2026-05-03 20:57 -41.04657 174.64484 7387 ft 306 kts 123°
2026-05-03 20:57 -41.05718 174.66944 6932 ft 308 kts 122°
2026-05-03 20:57 -41.06785 174.69426 6398 ft 311 kts 121°
2026-05-03 20:57 -41.07840 174.71898 5860 ft 303 kts 121°
2026-05-03 20:58 -41.08852 174.74270 5350 ft 295 kts 121°
2026-05-03 20:58 -41.09301 174.75321 5109 ft 292 kts 121°
2026-05-03 20:58 -41.10295 174.77648 4576 ft 287 kts 120°
2026-05-03 20:58 -41.11292 174.79909 4049 ft 281 kts 126°
2026-05-03 20:59 -41.12750 174.81524 3628 ft 270 kts 157°
2026-05-03 20:59 -41.14530 174.82190 2808 ft 269 kts 173°
2026-05-03 20:59 -41.16402 174.82189 2554 ft 258 kts 186°
2026-05-03 20:59 -41.18013 174.81934 2725 ft 210 kts 188°
2026-05-03 21:00 -41.19336 174.81695 2665 ft 179 kts 187°
2026-05-03 21:00 -41.19749 174.81644 2591 ft 174 kts 186°
2026-05-03 21:00 -41.21697 174.81470 2033 ft 165 kts 185°
2026-05-03 21:00 -41.22816 174.81350 1860 ft 159 kts 186°
2026-05-03 21:01 -41.23928 174.81280 1576 ft 161 kts 184°
2026-05-03 21:01 -41.25051 174.81178 1323 ft 162 kts 184°
2026-05-03 21:01 -41.26179 174.81069 1165 ft 162 kts 182°
2026-05-03 21:01 -41.27322 174.80978 906 ft 163 kts 179°
2026-05-03 21:02 -41.28442 174.80909 744 ft 160 kts 179°
2026-05-03 21:02 -41.29535 174.80872 567 ft 159 kts 179°
2026-05-03 21:02 -41.30631 174.80827 316 ft 159 kts 181°
2026-05-03 21:02 -41.31745 174.80751 121 ft 161 kts 181°
2026-05-03 21:03 -41.32803 174.80690 26 ft 120 kts 181°
2026-05-03 21:03 -41.33270 174.80648 26 ft 15 kts 183°
2026-05-03 21:03 -41.33287 174.80719 26 ft 11 kts 41°
2026-05-03 21:03 -41.33217 174.80769 26 ft 12 kts 26°
2026-05-03 21:04 -41.33152 174.80787 26 ft 10 kts
2026-05-03 21:04 -41.33077 174.80792 26 ft 11 kts
2026-05-03 21:04 -41.32995 174.80798 26 ft 12 kts
2026-05-03 21:04 -41.32949 174.80872 26 ft 10 kts 25°
2026-05-03 21:05 -41.32906 174.80940 26 ft 8 kts 44°
2026-05-03 21:05 -41.32899 174.80948 26 ft 1 kts 44°
2026-05-03 21:05 -41.32890 174.80963 26 ft 4 kts 47°
2026-05-03 21:05 -41.32872 174.80989 26 ft 3 kts 49°
2026-05-03 21:06 -41.32862 174.81005 26 ft 0 kts 52°